EN

Hourly Weather Dzierzgunka

Today, 23 October, Friday

Time Temperature Precipitation Wind Pressure Humidity
00:00 +12°C° 0 mm 3 mps 747 mmHg 90%
01:00 +12°C° 0 mm 3 mps 747 mmHg 91%
02:00 +12°C° 0 mm 4 mps 746 mmHg 89%
03:00 +12°C° 0 mm 4 mps 746 mmHg 88%
04:00 +12°C° 0 mm 5 mps 745 mmHg 86%
05:00 +12°C° 0.2 mm 4 mps 745 mmHg 87%
06:00 +12°C° 0.2 mm 4 mps 745 mmHg 88%
07:00 +13°C° 0.2 mm 4 mps 745 mmHg 89%
08:00 +13°C° 0 mm 5 mps 745 mmHg 87%
09:00 +14°C° 0 mm 5 mps 746 mmHg 84%
10:00 +15°C° 0 mm 5 mps 746 mmHg 82%
11:00 +15°C° 0 mm 5 mps 746 mmHg 79%
12:00 +15°C° 0 mm 5 mps 746 mmHg 77%
13:00 +15°C° 0 mm 5 mps 746 mmHg 75%
14:00 +15°C° 0 mm 4 mps 746 mmHg 77%
15:00 +14°C° 0 mm 3 mps 746 mmHg 78%
16:00 +14°C° 0 mm 2 mps 746 mmHg 80%
17:00 +14°C° 0 mm 2 mps 746 mmHg 83%
18:00 +13°C° 0 mm 2 mps 746 mmHg 87%
19:00 +12°C° 0 mm 1 mps 746 mmHg 90%
20:00 +12°C° 0 mm 1 mps 746 mmHg 90%
21:00 +12°C° 0 mm 1 mps 746 mmHg 90%
22:00 +12°C° 0 mm 1 mps 746 mmHg 89%
23:00 +12°C° 0 mm 1 mps 746 mmHg 89%

Tomorrow, 24 October, Saturday

Time Temperature Precipitation Wind Pressure Humidity
00:00 +12°C° 0 mm 1 mps 746 mmHg 90%
01:00 +12°C° 0 mm 1 mps 746 mmHg 90%
02:00 +12°C° 0.1 mm 1 mps 745 mmHg 91%
03:00 +12°C° 0.1 mm 1 mps 745 mmHg 93%
04:00 +12°C° 0.1 mm 1 mps 745 mmHg 94%
05:00 +12°C° 0.2 mm 1 mps 745 mmHg 95%
06:00 +12°C° 0.2 mm 1 mps 745 mmHg 96%
07:00 +12°C° 0.2 mm 1 mps 745 mmHg 97%
08:00 +13°C° 0.1 mm 2 mps 745 mmHg 93%
09:00 +13°C° 0.1 mm 2 mps 745 mmHg 89%
10:00 +13°C° 0.1 mm 3 mps 745 mmHg 86%
11:00 +14°C° 0.3 mm 4 mps 745 mmHg 80%
12:00 +15°C° 0.3 mm 4 mps 746 mmHg 74%
13:00 +16°C° 0.3 mm 5 mps 746 mmHg 69%
14:00 +15°C° 0.1 mm 4 mps 746 mmHg 72%
15:00 +14°C° 0.1 mm 4 mps 746 mmHg 75%
16:00 +13°C° 0.1 mm 3 mps 747 mmHg 79%
17:00 +12°C° 0 mm 3 mps 747 mmHg 81%
18:00 +11°C° 0 mm 3 mps 748 mmHg 83%
19:00 +10°C° 0 mm 3 mps 748 mmHg 85%
20:00 +10°C° 0 mm 3 mps 748 mmHg 85%
21:00 +9°C° 0 mm 3 mps 749 mmHg 86%
22:00 +9°C° 0 mm 3 mps 749 mmHg 87%
23:00 +9°C° 0 mm 3 mps 749 mmHg 85%

Day after tomorrow, 25 October, Sunday

Time Temperature Precipitation Wind Pressure Humidity
00:00 +10°C° 0 mm 3 mps 749 mmHg 84%
01:00 +10°C° 0 mm 3 mps 749 mmHg 83%
02:00 +10°C° 0 mm 3 mps 749 mmHg 87%
03:00 +9°C° 0 mm 2 mps 749 mmHg 90%
04:00 +8°C° 0 mm 2 mps 750 mmHg 94%
05:00 +8°C° 0 mm 2 mps 750 mmHg 94%
06:00 +8°C° 0 mm 2 mps 750 mmHg 95%
07:00 +8°C° 0 mm 2 mps 750 mmHg 95%
08:00 +9°C° 0 mm 2 mps 750 mmHg 88%
09:00 +12°C° 0 mm 2 mps 750 mmHg 81%
10:00 +12°C° 0 mm 3 mps 750 mmHg 74%
11:00 +13°C° 0 mm 3 mps 750 mmHg 70%
12:00 +14°C° 0 mm 3 mps 750 mmHg 66%
13:00 +16°C° 0 mm 3 mps 750 mmHg 62%
14:00 +14°C° 0 mm 3 mps 750 mmHg 67%
15:00 +13°C° 0 mm 3 mps 749 mmHg 73%
16:00 +13°C° 0 mm 2 mps 749 mmHg 78%
17:00 +12°C° 0 mm 3 mps 749 mmHg 82%
18:00 +11°C° 0 mm 3 mps 749 mmHg 86%
19:00 +10°C° 0 mm 3 mps 750 mmHg 90%
20:00 +10°C° 0 mm 3 mps 750 mmHg 90%
21:00 +10°C° 0 mm 3 mps 750 mmHg 89%
22:00 +10°C° 0 mm 4 mps 750 mmHg 89%
23:00 +10°C° 0 mm 4 mps 749 mmHg 89%

, 26 October, Monday

Time Temperature Precipitation Wind Pressure Humidity
00:00 +9°C° 0 mm 3 mps 749 mmHg 89%
01:00 +9°C° 0 mm 3 mps 749 mmHg 89%
02:00 +9°C° 0 mm 3 mps 749 mmHg 89%
03:00 +8°C° 0 mm 3 mps 749 mmHg 90%
04:00 +8°C° 0 mm 3 mps 748 mmHg 91%
05:00 +7°C° 0 mm 4 mps 748 mmHg 92%
06:00 +7°C° 0 mm 4 mps 748 mmHg 93%
07:00 +7°C° 0 mm 4 mps 748 mmHg 94%
08:00 +8°C° 0 mm 4 mps 747 mmHg 89%
09:00 +9°C° 0 mm 5 mps 747 mmHg 83%
10:00 +12°C° 0 mm 5 mps 747 mmHg 78%
11:00 +12°C° 0 mm 5 mps 747 mmHg 76%
12:00 +13°C° 0 mm 5 mps 746 mmHg 73%
13:00 +14°C° 0 mm 5 mps 746 mmHg 70%
14:00 +13°C° 0 mm 5 mps 746 mmHg 72%
15:00 +13°C° 0 mm 5 mps 745 mmHg 73%
16:00 +12°C° 0 mm 5 mps 745 mmHg 75%
17:00 +12°C° 0 mm 5 mps 745 mmHg 78%
18:00 +12°C° 0 mm 5 mps 745 mmHg 81%
19:00 +10°C° 0 mm 5 mps 745 mmHg 84%
20:00 +10°C° 0 mm 5 mps 745 mmHg 84%
21:00 +11°C° 0 mm 4 mps 745 mmHg 85%
22:00 +11°C° 0 mm 4 mps 744 mmHg 86%
23:00 +11°C° 0 mm 4 mps 744 mmHg 88%

26 October, Monday

Time Temperature Precipitation Wind Pressure Humidity
00:00 +9°C° 0 mm 3 mps 749 mmHg 89%
01:00 +9°C° 0 mm 3 mps 749 mmHg 89%
02:00 +9°C° 0 mm 3 mps 749 mmHg 89%
03:00 +8°C° 0 mm 3 mps 749 mmHg 90%
04:00 +8°C° 0 mm 3 mps 748 mmHg 91%
05:00 +7°C° 0 mm 4 mps 748 mmHg 92%
06:00 +7°C° 0 mm 4 mps 748 mmHg 93%
07:00 +7°C° 0 mm 4 mps 748 mmHg 94%
08:00 +8°C° 0 mm 4 mps 747 mmHg 89%
09:00 +9°C° 0 mm 5 mps 747 mmHg 83%
10:00 +12°C° 0 mm 5 mps 747 mmHg 78%
11:00 +12°C° 0 mm 5 mps 747 mmHg 76%
12:00 +13°C° 0 mm 5 mps 746 mmHg 73%
13:00 +14°C° 0 mm 5 mps 746 mmHg 70%
14:00 +13°C° 0 mm 5 mps 746 mmHg 72%
15:00 +13°C° 0 mm 5 mps 745 mmHg 73%
16:00 +12°C° 0 mm 5 mps 745 mmHg 75%
17:00 +12°C° 0 mm 5 mps 745 mmHg 78%
18:00 +12°C° 0 mm 5 mps 745 mmHg 81%
19:00 +10°C° 0 mm 5 mps 745 mmHg 84%
20:00 +10°C° 0 mm 5 mps 745 mmHg 84%
21:00 +11°C° 0 mm 4 mps 745 mmHg 85%
22:00 +11°C° 0 mm 4 mps 744 mmHg 86%
23:00 +11°C° 0 mm 4 mps 744 mmHg 88%

27 October, Tuesday

Time Temperature Precipitation Wind Pressure Humidity
00:00 +10°C° 0 mm 4 mps 744 mmHg 91%
01:00 +10°C° 0 mm 4 mps 744 mmHg 94%
02:00 +10°C° 0 mm 4 mps 744 mmHg 94%
03:00 +10°C° 0 mm 4 mps 744 mmHg 94%
04:00 +10°C° 0 mm 4 mps 744 mmHg 94%
05:00 +10°C° 0 mm 4 mps 744 mmHg 94%
06:00 +10°C° 0 mm 4 mps 744 mmHg 93%
07:00 +10°C° 0 mm 3 mps 745 mmHg 93%
08:00 +10°C° 0 mm 4 mps 745 mmHg 89%
09:00 +11°C° 0 mm 4 mps 745 mmHg 86%
10:00 +12°C° 0 mm 4 mps 745 mmHg 82%
11:00 +13°C° 0 mm 4 mps 745 mmHg 77%
12:00 +14°C° 0 mm 4 mps 745 mmHg 72%
13:00 +17°C° 0 mm 4 mps 745 mmHg 66%
14:00 +15°C° 0 mm 4 mps 745 mmHg 71%
15:00 +14°C° 0 mm 3 mps 745 mmHg 75%
16:00 +14°C° 0 mm 2 mps 745 mmHg 79%
17:00 +14°C° 0 mm 2 mps 746 mmHg 82%
18:00 +13°C° 0 mm 2 mps 746 mmHg 86%
19:00 +12°C° 0 mm 2 mps 746 mmHg 89%
20:00 +12°C° 0 mm 2 mps 746 mmHg 90%
21:00 +12°C° 0 mm 2 mps 747 mmHg 91%
22:00 +12°C° 0 mm 2 mps 747 mmHg 92%
23:00 +10°C° 0 mm 2 mps 747 mmHg 92%

28 October, Wednesday

Time Temperature Precipitation Wind Pressure Humidity
00:00 +11°C° 0 mm 1 mps 747 mmHg 92%
01:00 +11°C° 0 mm 1 mps 747 mmHg 92%
02:00 +11°C° 0 mm 1 mps 747 mmHg 92%
03:00 +10°C° 0 mm 0 mps 747 mmHg 92%
04:00 +9°C° 0 mm 0 mps 748 mmHg 92%
05:00 +9°C° 0 mm 0 mps 748 mmHg 92%
06:00 +9°C° 0 mm 0 mps 748 mmHg 92%
07:00 +9°C° 0 mm 0 mps 748 mmHg 92%
08:00 +11°C° 0 mm 0 mps 749 mmHg 86%
09:00 +13°C° 0 mm 1 mps 749 mmHg 81%
10:00 +15°C° 0 mm 1 mps 749 mmHg 75%
11:00 +15°C° 0 mm 1 mps 749 mmHg 72%
12:00 +16°C° 0 mm 1 mps 749 mmHg 69%
13:00 +18°C° 0 mm 1 mps 749 mmHg 66%
14:00 +16°C° 0 mm 1 mps 749 mmHg 71%
15:00 +15°C° 0 mm 1 mps 749 mmHg 76%
16:00 +14°C° 0 mm 1 mps 749 mmHg 81%
17:00 +13°C° 0 mm 1 mps 749 mmHg 85%
18:00 +12°C° 0 mm 1 mps 749 mmHg 88%
19:00 +12°C° 0 mm 1 mps 749 mmHg 91%
20:00 +12°C° 0 mm 1 mps 749 mmHg 92%
21:00 +11°C° 0 mm 1 mps 750 mmHg 93%
22:00 +11°C° 0 mm 1 mps 750 mmHg 94%
23:00 +11°C° 0 mm 1 mps 750 mmHg 94%
Show more